User: anonymous   Login
Location: Ch�tillon
(48.8024°N, 2.2935°E)
Time: 03:05:28
(UTC+00:00)
Language:

Cosmos 2123 Rocket - Orbit

View from above orbital plane
View from above orbital plane
View from above satellite
View from above satellite

Ground track
Ground track

The orbit data is extracted from the following two-line orbital elements,

1 21090U 91007B   22019.52104659  .00000099  00000-0  85585-4 0  9998
2 21090  82.9196  69.4499 0021240  29.7214 330.5145 13.76408353554458
Epoch (UTC): 19 January 2022 12:30:18
Eccentricity: 0.0021240
inclination: 82.9196°
perigee height: 961 km
apogee height: 992 km
right ascension of ascending node: 69.4499°
argument of perigee: 29.7214°
revolutions per day: 13.76408353
mean anomaly at epoch: 330.5145°
orbit number at epoch: 55445

The dashed part of the orbit path shows where the satellite is in the earth's shadow,  

DLR